W1REE Weather Reports


time (UTC)temp
C
wind
direction
speed
KPH
gust
KPH
rain 1hr
cm
rain 24hr
cm
rain mn
cm
humidity
%
barometer
mb
20260505153049 4 25 0.0 1.6 0.00 0.00 0.00 88 1015.7
20260505152546 4 0 1.6 1.6 0.00 0.00 0.00 88 1015.4
20260505152042 4 12 1.6 1.6 0.00 0.00 0.00 87 1015.6
20260505151537 4 35 0.0 0.0 0.00 0.00 0.00 86 1015.6
20260505151035 5 56 0.0 0.0 0.00 0.00 0.00 85 1015.4
20260505150531 5 25 0.0 0.0 0.00 0.00 0.00 84 1015.4
20260505140456 5 18 0.0 1.6 0.00 0.00 0.00 81 1015.3
20260505124909 5 5 0.0 0.0 0.00 0.00 0.00 80 1014.6
20260505124406 5 355 0.0 0.0 0.00 0.00 0.00 79 1014.6
20260505123902 5 355 0.0 0.0 0.00 0.00 0.00 78 1014.6
20260505123359 6 350 1.6 1.6 0.00 0.00 0.00 78 1014.6
20260505122855 6 349 0.0 0.0 0.00 0.00 0.00 77 1014.4
20260505122352 6 11 0.0 1.6 0.00 0.00 0.00 77 1014.5
20260505121849 6 14 0.0 0.0 0.00 0.00 0.00 76 1014.1
20260505121346 6 20 0.0 0.0 0.00 0.00 0.00 76 1014.0
20260505120842 6 6 1.6 3.2 0.00 0.00 0.00 75 1014.0
20260505120338 6 338 0.0 0.0 0.00 0.00 0.00 75 1013.6
20260505115837 6 337 0.0 0.0 0.00 0.00 0.00 74 1013.5
20260505115334 6 337 0.0 1.6 0.00 0.00 0.00 72 1013.5
20260505114832 6 337 0.0 0.0 0.00 0.00 0.00 73 1013.4
20260505114328 6 90 1.6 1.6 0.00 0.00 0.00 71 1013.3
20260505113825 6 336 1.6 1.6 0.00 0.00 0.00 71 1013.3
20260505113321 6 334 1.6 1.6 0.00 0.00 0.00 72 1013.4
20260505112817 6 41 3.2 3.2 0.00 0.00 0.00 71 1013.0
20260505112315 7 345 0.0 0.0 0.00 0.00 0.00 72 1013.0
20260505111810 7 321 0.0 0.0 0.00 0.00 0.00 73 1012.9
20260505111306 7 21 1.6 1.6 0.00 0.00 0.00 73 1013.3
20260505110802 7 8 1.6 1.6 0.00 0.00 0.00 75 1012.9
20260505110300 7 352 1.6 3.2 0.00 0.00 0.00 76 1013.3
20260505101734 7 336 0.0 0.0 0.00 0.00 0.00 79 1013.1
20260505101230 7 311 0.0 0.0 0.00 0.00 0.00 79 1013.3
20260505100726 7 337 1.6 1.6 0.00 0.00 0.00 81 1013.5
20260505100223 7 332 1.6 3.2 0.00 0.00 0.00 82 1013.6
20260505095724 7 322 0.0 0.0 0.00 0.00 0.00 83 1013.1
20260505095222 7 322 0.0 0.0 0.00 0.00 0.00 83 1013.5
20260505094717 7 317 0.0 1.6 0.00 0.00 0.00 83 1013.5
20260505094214 7 318 0.0 0.0 0.00 0.00 0.00 83 1013.5
20260505093710 7 318 0.0 0.0 0.00 0.00 0.00 82 1013.5
20260505093208 7 318 0.0 0.0 0.00 0.00 0.00 82 1013.6
20260505092704 7 318 0.0 0.0 0.00 0.00 0.00 80 1013.4
20260505092204 7 318 0.0 0.0 0.00 0.00 0.00 81 1013.4
20260505091700 7 318 0.0 0.0 0.00 0.00 0.00 81 1013.3
20260505091158 7 318 0.0 0.0 0.00 0.00 0.00 81 1013.6
20260505090655 8 318 0.0 0.0 0.00 0.00 0.00 80 1013.7
20260505090154 8 318 0.0 0.0 0.00 0.00 0.00 81 1013.5
20260505085650 8 318 0.0 0.0 0.00 0.00 0.00 81 1013.6
20260505085149 8 318 0.0 1.6 0.00 0.00 0.00 80 1013.5
20260505084646 8 318 0.0 0.0 0.00 0.00 0.00 79 1013.7
20260505084144 8 318 0.0 0.0 0.00 0.00 0.00 80 1014.0
20260505083642 8 318 0.0 0.0 0.00 0.00 0.00 80 1014.0
20260505083138 8 318 0.0 0.0 0.00 0.00 0.00 80 1014.0
20260505082634 8 318 0.0 0.0 0.00 0.00 0.00 81 1014.1
20260505082131 8 318 0.0 0.0 0.00 0.00 0.00 80 1014.1
20260505081627 8 318 0.0 0.0 0.00 0.00 0.00 80 1014.2
20260505081125 8 318 0.0 0.0 0.00 0.00 0.00 79 1014.1
20260505080621 8 318 0.0 0.0 0.00 0.00 0.00 80 1014.1
20260505080117 8 318 0.0 0.0 0.00 0.00 0.00 78 1014.2
20260505075614 8 318 1.6 1.6 0.00 0.00 0.00 79 1014.1
20260505075110 8 318 0.0 0.0 0.00 0.00 0.00 80 1014.2
20260505074607 8 318 1.6 1.6 0.00 0.00 0.00 80 1014.2
20260505074104 8 321 0.0 0.0 0.00 0.00 0.00 82 1014.2
20260505073602 8 321 0.0 0.0 0.00 0.00 0.00 81 1014.2
20260505073100 8 321 0.0 0.0 0.00 0.00 0.00 81 1014.5
20260505072555 8 321 0.0 1.6 0.00 0.00 0.00 83 1014.4
20260505072052 7 321 0.0 1.6 0.00 0.00 0.00 84 1014.2
20260505071547 7 321 0.0 0.0 0.00 0.00 0.00 86 1014.5
20260505071046 7 321 0.0 0.0 0.00 0.00 0.00 88 1014.5
20260505070543 7 320 0.0 1.6 0.00 0.00 0.00 88 1014.4
20260505070039 7 321 0.0 1.6 0.00 0.00 0.00 88 1014.4
20260505065535 7 321 0.0 0.0 0.00 0.00 0.00 88 1014.4
20260505065032 7 321 0.0 1.6 0.00 0.00 0.00 87 1014.1
20260505064528 8 321 0.0 0.0 0.00 0.00 0.00 86 1014.2
20260505064027 8 321 0.0 1.6 0.00 0.00 0.00 84 1014.2
20260505063524 8 321 0.0 0.0 0.00 0.00 0.00 83 1014.4
20260505063020 8 321 0.0 0.0 0.00 0.00 0.00 80 1014.6
20260505062517 8 321 0.0 1.6 0.00 0.00 0.00 79 1014.5
20260505062014 8 321 0.0 0.0 0.00 0.00 0.00 76 1014.5
20260505061511 8 321 0.0 0.0 0.00 0.00 0.00 81 1014.4
20260505061009 8 321 0.0 0.0 0.00 0.00 0.00 78 1014.5
20260505060506 9 321 0.0 0.0 0.00 0.00 0.00 76 1014.5
20260505060002 9 321 0.0 0.0 0.00 0.00 0.00 71 1014.4
20260505055458 9 313 0.0 0.0 0.00 0.00 0.00 70 1014.7
20260505054955 10 313 0.0 0.0 0.00 0.00 0.00 68 1014.6
20260505054452 10 309 0.0 0.0 0.00 0.00 0.00 66 1014.7
20260505053950 10 308 0.0 1.6 0.00 0.00 0.00 65 1014.5
20260505053447 10 308 1.6 1.6 0.00 0.00 0.00 64 1014.5
20260505052944 10 288 3.2 4.8 0.00 0.00 0.00 64 1014.5
20260505052441 10 321 3.2 3.2 0.00 0.00 0.00 64 1014.5
20260505051938 10 302 3.2 3.2 0.00 0.00 0.00 64 1014.6
20260505051435 10 332 1.6 1.6 0.00 0.00 0.00 65 1014.6
20260505050933 10 336 6.4 9.7 0.00 0.00 0.00 63 1014.6
20260505050431 10 348 0.0 0.0 0.00 0.00 0.00 64 1014.5
20260505041359 10 343 0.0 0.0 0.00 0.00 0.00 64 1014.1
20260505040856 10 343 0.0 1.6 0.00 0.00 0.00 63 1013.9
20260505040353 10 343 0.0 0.0 0.00 0.00 0.00 63 1014.0
20260505035850 10 343 0.0 0.0 0.00 0.00 0.00 63 1014.0
20260505035345 10 338 0.0 0.0 0.00 0.00 0.00 63 1014.0
20260505034843 10 354 0.0 0.0 0.00 0.00 0.00 63 1014.0
20260505034339 10 359 1.6 1.6 0.00 0.00 0.00 63 1013.9
20260505033837 10 331 1.6 1.6 0.00 0.00 0.00 64 1013.9
20260505033334 10 312 0.0 0.0 0.00 0.00 0.00 61 1013.7
20260505032832 10 333 1.6 1.6 0.00 0.00 0.00 63 1013.7
20260505032328 10 340 0.0 0.0 0.00 0.00 0.00 62 1013.5
20260505031825 10 314 0.0 0.0 0.00 0.00 0.00 62 1013.5
20260505031322 10 310 0.0 0.0 0.00 0.00 0.00 60 1013.4
20260505030819 10 312 1.6 1.6 0.00 0.00 0.00 62 1013.5
20260505030315 10 311 1.6 1.6 0.00 0.00 0.00 61 1013.3
20260505025810 10 308 0.0 1.6 0.00 0.00 0.00 62 1013.0
20260505025309 10 308 1.6 1.6 0.00 0.00 0.00 62 1012.9
20260505024807 10 309 0.0 1.6 0.00 0.00 0.00 61 1013.1
20260505024304 10 306 3.2 3.2 0.00 0.00 0.00 59 1013.3
20260505023801 11 340 3.2 4.8 0.00 0.00 0.00 57 1013.3
20260505023258 11 303 6.4 9.7 0.00 0.00 0.00 57 1013.3
20260505022755 11 323 3.2 4.8 0.00 0.00 0.00 58 1013.3
20260505022252 11 291 4.8 4.8 0.00 0.00 0.00 57 1013.3
20260505021749 11 356 1.6 1.6 0.00 0.00 0.00 55 1013.4
20260505021246 11 333 9.7 12.9 0.00 0.00 0.00 54 1012.9
20260505020741 11 323 1.6 3.2 0.00 0.00 0.00 54 1013.3
20260505020237 11 341 1.6 3.2 0.00 0.00 0.00 54 1013.0
20260505015734 11 318 3.2 3.2 0.00 0.00 0.00 56 1013.4
20260505015231 11 323 3.2 4.8 0.00 0.00 0.00 57 1013.5
20260505014728 11 319 3.2 4.8 0.00 0.00 0.00 55 1013.1
20260505014226 11 332 6.4 9.7 0.00 0.00 0.00 55 1012.9
20260505013722 10 328 9.7 12.9 0.00 0.00 0.00 58 1012.7
20260505013219 10 304 3.2 4.8 0.00 0.00 0.00 61 1012.7
20260505012718 10 283 8.0 11.3 0.00 0.00 0.00 62 1012.5
20260505012215 10 308 8.0 12.9 0.00 0.00 0.00 64 1012.9
20260505011710 11 309 6.4 9.7 0.00 0.00 0.00 62 1013.0
20260505011208 12 293 9.7 14.5 0.00 0.00 0.00 55 1013.0
20260505010703 12 313 12.9 16.1 0.00 0.00 0.00 49 1012.5
20260505010200 13 303 6.4 11.3 0.00 0.00 0.00 46 1012.3
20260505005656 14 357 8.0 11.3 0.00 0.00 0.00 39 1012.2
20260505005153 15 23 4.8 6.4 0.00 0.00 0.00 38 1011.8
20260505004650 15 340 8.0 9.7 0.00 0.00 0.00 36 1011.7
20260505004146 16 35 4.8 4.8 0.00 0.00 0.00 34 1011.0
20260505003644 16 341 6.4 12.9 0.00 0.00 0.00 33 1011.2
20260505003142 16 336 3.2 4.8 0.00 0.00 0.00 31 1011.1
20260505002637 16 89 3.2 3.2 0.00 0.00 0.00 31 1010.9
20260505002136 16 160 6.4 6.4 0.00 0.00 0.00 34 1011.1
20260505001632 17 333 4.8 9.7 0.00 0.00 0.00 31 1011.0
20260505001130 17 298 4.8 4.8 0.00 0.00 0.00 29 1010.7
20260505000627 17 341 0.0 1.6 0.00 0.00 0.00 29 1010.7
20260505000125 17 2 1.6 1.6 0.00 0.00 0.00 28 1010.7
20260504235621 17 356 1.6 1.6 0.00 0.00 0.00 28 1010.4
20260504235118 17 351 1.6 1.6 0.00 0.00 0.00 28 1010.4
20260504234615 17 359 0.0 0.0 0.00 0.00 0.00 28 1010.3
20260504234112 17 350 3.2 3.2 0.00 0.00 0.00 28 1009.8
20260504233607 17 2 1.6 1.6 0.00 0.00 0.00 32 1010.0
20260504233104 17 1 1.6 1.6 0.00 0.00 0.00 33 1010.0
20260504232601 17 344 1.6 1.6 0.00 0.00 0.00 31 1009.9
20260504232059 17 347 1.6 3.2 0.00 0.00 0.00 30 1010.0
20260504231555 17 20 3.2 3.2 0.00 0.00 0.00 31 1009.9
20260504231051 17 8 1.6 1.6 0.00 0.00 0.00 31 1009.9
20260504230547 17 14 0.0 1.6 0.00 0.00 0.00 32 1010.0
20260504230047 17 28 3.2 4.8 0.00 0.00 0.00 31 1010.0
20260504225543 17 307 0.0 0.0 0.00 0.00 0.00 30 1010.0
20260504225040 17 318 0.0 1.6 0.00 0.00 0.00 30 1009.9
20260504224537 17 332 1.6 3.2 0.00 0.00 0.00 31 1010.0
20260504224034 17 4 3.2 3.2 0.00 0.00 0.00 32 1010.1
20260504223531 17 31 1.6 4.8 0.00 0.00 0.00 34 1010.3
20260504223027 16 322 1.6 3.2 0.00 0.00 0.00 33 1010.5
20260504222523 16 290 3.2 4.8 0.00 0.00 0.00 35 1010.4
20260504222021 16 8 3.2 4.8 0.00 0.00 0.00 37 1010.4
20260504221518 16 8 4.8 4.8 0.00 0.00 0.00 38 1010.3
20260504221015 17 359 3.2 3.2 0.00 0.00 0.00 33 1010.5
20260504220511 17 354 1.6 3.2 0.00 0.00 0.00 32 1010.5
20260504220009 17 352 6.4 9.7 0.00 0.00 0.00 30 1010.6
20260504215505 17 330 6.4 9.7 0.00 0.00 0.00 30 1010.3
20260504215003 17 343 9.7 12.9 0.00 0.00 0.00 30 1010.3
20260504214458 17 343 6.4 9.7 0.00 0.00 0.00 30 1010.4
20260504213955 18 1 12.9 16.1 0.00 0.00 0.00 28 1010.0
20260504213451 19 334 4.8 6.4 0.00 0.00 0.00 22 1009.9
20260504212949 19 17 4.8 11.3 0.00 0.00 0.00 21 1009.8
20260504212444 20 2 9.7 14.5 0.00 0.00 0.00 20 1009.8
20260504211942 21 359 0.0 1.6 0.00 0.00 0.00 20 1009.5
20260504211438 21 347 0.0 1.6 0.00 0.00 0.00 18 1009.4
20260504210936 21 16 0.0 1.6 0.00 0.00 0.00 18 1009.3
20260504210433 21 14 3.2 4.8 0.00 0.00 0.00 18 1009.3
20260504205930 21 1 0.0 1.6 0.00 0.00 0.00 19 1009.3
20260504205427 22 39 4.8 6.4 0.00 0.00 0.00 17 1009.3
20260504204925 21 346 1.6 1.6 0.00 0.00 0.00 18 1009.2
20260504204423 21 3 1.6 1.6 0.00 0.00 0.00 18 1009.4
20260504203922 21 3 3.2 3.2 0.00 0.00 0.00 17 1009.5
20260504203420 22 1 1.6 3.2 0.00 0.00 0.00 18 1010.0
20260504202915 21 327 0.0 0.0 0.00 0.00 0.00 18 1009.8
20260504202412 21 356 3.2 4.8 0.00 0.00 0.00 18 1009.8
20260504201909 22 277 8.0 9.7 0.00 0.00 0.00 17 1010.1
20260504201406 22 347 4.8 6.4 0.00 0.00 0.00 16 1010.0
20260504200903 22 259 9.7 11.3 0.00 0.00 0.00 16 1010.1
20260504200400 22 305 3.2 4.8 0.00 0.00 0.00 17 1009.9
20260504195857 21 273 8.0 11.3 0.00 0.00 0.00 18 1010.0
20260504195352 21 290 6.4 6.4 0.00 0.00 0.00 19 1010.1
20260504194849 21 288 4.8 6.4 0.00 0.00 0.00 19 1010.4
20260504194345 20 262 11.3 17.7 0.00 0.00 0.00 21 1010.6
20260504193841 21 288 14.5 27.4 0.00 0.00 0.00 19 1010.7
20260504193338 21 207 3.2 3.2 0.00 0.00 0.00 18 1010.5
20260504192837 21 351 1.6 1.6 0.00 0.00 0.00 16 1010.6
20260504192335 22 345 1.6 3.2 0.00 0.00 0.00 13 1010.6
20260504191833 22 270 1.6 1.6 0.00 0.00 0.00 14 1010.5
20260504191330 23 319 6.4 6.4 0.00 0.00 0.00 13 1010.7
20260504190825 22 304 1.6 1.6 0.00 0.00 0.00 14 1010.5
20260504190322 21 315 0.0 0.0 0.00 0.00 0.00 17 1010.7
20260504185819 21 281 4.8 4.8 0.00 0.00 0.00 14 1010.9
20260504185316 21 284 4.8 6.4 0.00 0.00 0.00 15 1010.9
20260504184812 21 316 0.0 0.0 0.00 0.00 0.00 14 1011.0
20260504184308 22 321 3.2 6.4 0.00 0.00 0.00 14 1010.9
20260504183803 22 313 1.6 3.2 0.00 0.00 0.00 14 1011.2
20260504183300 22 331 3.2 3.2 0.00 0.00 0.00 14 1011.2
20260504182759 22 294 6.4 9.7 0.00 0.00 0.00 14 1011.3
20260504182255 22 291 4.8 4.8 0.00 0.00 0.00 14 1011.3
20260504181753 21 324 3.2 4.8 0.00 0.00 0.00 15 1011.8
20260504181250 20 311 4.8 4.8 0.00 0.00 0.00 15 1011.7
20260504180749 20 322 6.4 11.3 0.00 0.00 0.00 16 1011.7
20260504180247 21 338 6.4 9.7 0.00 0.00 0.00 16 1011.7
20260504175745 22 320 1.6 3.2 0.00 0.00 0.00 15 1011.7
20260504175241 22 348 4.8 6.4 0.00 0.00 0.00 15 1011.6
20260504174739 21 263 4.8 6.4 0.00 0.00 0.00 15 1011.8
20260504174237 21 6 12.9 14.5 0.00 0.00 0.00 14 1011.9
20260504173733 20 331 4.8 4.8 0.00 0.00 0.00 17 1012.1
20260504173230 20 311 9.7 12.9 0.00 0.00 0.00 16 1012.1
20260504172727 20 283 14.5 20.9 0.00 0.00 0.00 17 1012.4
20260504172223 20 297 11.3 14.5 0.00 0.00 0.00 17 1012.3
20260504171720 20 324 14.5 17.7 0.00 0.00 0.00 17 1012.4
20260504171217 20 296 6.4 14.5 0.00 0.00 0.00 20 1012.4
20260504170714 20 302 4.8 6.4 0.00 0.00 0.00 21 1012.4
20260504170211 20 266 11.3 14.5 0.00 0.00 0.00 20 1012.8
20260504160129 20 322 3.2 4.8 0.00 0.00 0.00 21 1012.9